Regional Weather Roundup
Issued by NWS Green Bay, WI

Home | Current Version | Previous Version | Text Only | Print | Product List | Glossary On
Versions: 1 2 3 4 5 6 7 8 9 10 11 12 13 14 15 16 17 18 19 20 21 22 23 24 25 26 27 28 29 30 31 32 33 34 35 36 37 38 39 40 41 42 43 44 45 46 47 48 49 50
000
ASUS43 KGRB 231210
RWRGRB

NORTH-CENTRAL AND NORTHEAST WISCONSIN REGIONAL WEATHER ROUNDUP
NATIONAL WEATHER SERVICE GREEN BAY WI
700 AM CDT WED APR 23 2014

WIZ005-009-010>012-018-019-231300-
NORTH CENTRAL WISCONSIN

CITY           SKY/WX    TMP DP  RH WIND       PRES   REMARKS
IRONWOOD       CLEAR     27  21  80 E3        30.12R
MANITOWISH WTR CLEAR     24  23  96 CALM      30.14R
ARBOR VITAE    CLEAR     28  19  71 CALM      30.15R
EAGLE RIVER    CLEAR     25  25 100 CALM      30.14S
LAND O LAKES   CLEAR     22  21  95 CALM      30.16R
RHINELANDER    CLEAR     26  21  81 CALM      30.15S
PHILLIPS       MOCLDY    27  25  91 CALM      30.14R
ANTIGO         CLEAR     29  28  96 CALM      30.16R
TOMAHAWK       CLEAR     25  24  94 CALM      30.15S
MERRILL        CLEAR     26  24  95 CALM      30.15S
$$

WIZ013-073-231300-
NORTHEAST WISCONSIN

CITY           SKY/WX    TMP DP  RH WIND       PRES   REMARKS
IRON MOUNTAIN  SUNNY     26  22  84 CALM      30.16R
MARINETTE      SUNNY     30  25  80 N7        30.18R
OCONTO         SUNNY     31  26  83 N5        30.17S
$$

WIZ017-030-035>037-045-231300-
CENTRAL WISCONSIN

CITY           SKY/WX    TMP DP  RH WIND       PRES   REMARKS
MEDFORD        MOCLDY    30  26  84 E3        30.14R
WAUSAU         PTCLDY    29  25  85 CALM      30.14S
MOSINEE        CLEAR     30  27  86 NE3       30.16R
MARSHFIELD     MOCLDY    32  27  81 E3        30.14R
WISC RAPIDS    MOCLDY    28  25  88 E5        30.16S
STEVENS POINT  PTCLDY    30  25  79 CALM      30.16R
WAUPACA        PTCLDY    34  28  80 CALM      30.18R
SHAWANO        SUNNY     30  28  92 CALM      30.18S
CLINTONVILLE   CLEAR     30  30 100 CALM      30.18R
$$

WIZ038-039-048-051-231300-
FOX VALLEY

CITY           SKY/WX    TMP DP  RH WIND       PRES   REMARKS
NWS GREEN BAY  SUNNY     32  28  85 NW3       30.18R
APPLETON       MOSUNNY   32  25  74 VRB6      30.18R
OSHKOSH        SUNNY     36  27  69 NE6       30.16S
FOND DU LAC    MOSUNNY   30  27  88 CALM      30.16S
$$

WIZ022-050-052-231300-
EAST CENTRAL WISCONSIN

CITY           SKY/WX    TMP DP  RH WIND       PRES   REMARKS
STURGEON BAY   SUNNY     30  25  80 NW7       30.18R
MANITOWOC      SUNNY     33  28  81 NW5       30.17R
SHEBOYGAN      SUNNY     33  27  78 NW5       30.17S
$$

LMZ563-521-522-541>543-231300-
LAKESHORE

STATION/POSITION TIME  TEMP    WIND        PRES    VSBY  WAVE
                       AIR SEA DIR/SP/G                  HT/PER
                 (UTC) (F)     (DEG/KT/KT) (MB)    (MI)  (FT/S)
SHEBOYGAN LKSHOR 1200   36     320/  7/  8 1022.6R
KEWAUNEE LKSHORE 1200   31     330/  6/  7 1022.2R
NORTHPORT PIER   1200   30     300/  6/  8 1021.3R
SISTER BAY LKSHO 1100   30      10/  5/  6   N/A
STURGEON BAY CG  1200   33     310/  8     1020.9      6   1
MENOMINEE LKSHOR 1200   32     290/  6/  9 1022.5R
$$



USA.gov is the U.S. government's official web portal to all federal, state and local government web resources and services.